Budapest Ferihegy, Hungary

8:13 PM CEST on June 28, 2017 (GMT +0200)
Ferihegy

Weather History for LHBP - April, 2013

Change the Weather History Date:

Friday, April 12, 2013

  Actual Average Record
Temperature  
Mean Temperature 57 °F -  
Max Temperature 66 °F 63 °F 75 °F (2009)
Min Temperature 48 °F 42 °F 28 °F (2003)
Degree Days  
Heating Degree Days 8    
Growing Degree Days 7 (Base 50)    
Moisture  
Dew Point 47 °F    
Average Humidity 73    
Maximum Humidity 100    
Minimum Humidity 48    
Precipitation  
Precipitation 0.00 in - - ()
Sea Level Pressure  
Sea Level Pressure 29.79 in    
Wind  
Wind Speed 12 mph ()    
Max Wind Speed 26 mph    
Max Gust Speed 36 mph    
Visibility 6.1 miles    
Events Rain    
Averages and records for this station are not official NWS values.
T = Trace of Precipitation, MM = Missing Value Source: Averaged Metar Reports

Daily Weather History Graph

Daily Weather History Graph

Search for Another Location

Airport or City:

Trip Planner

Search our weather history database for the weather conditions in past years. The results will help you decide how hot, cold, wet, or windy it might be!

Date:

Astronomy

Apr. 12, 2013 Rise Set
Actual Time 6:00 AM CEST 7:28 PM CEST
Civil Twilight 5:28 AM CEST 8:00 PM CEST
Nautical Twilight 4:49 AM CEST 8:38 PM CEST
Astronomical Twilight 4:07 AM CEST 9:20 PM CEST
Moon 6:50 AM CEST (4/12) 9:52 PM CEST (4/12)
Length of Visible Light 14h 31m
Length of Day
13h 27m
Waxing Crescent, 4% of the Moon is Illuminated
Apr 12
Waxing Crescent
Apr 18
First Quarter
Apr 25
Full
May 2
Last Quarter
May 10
New

Hourly Weather History & Observations

Time (CEST) Temp. Dew Point Humidity Pressure Visibility Wind Dir Wind Speed Gust Speed Precip Events Conditions
12:00 AM 51.8 °F 44.6 °F 76% 29.83 in - SSE 13.8 mph - N/A   Clear
12:30 AM 53.6 °F 44.6 °F 72% 29.83 in - SSE 15.0 mph - N/A   Clear
1:00 AM 51.8 °F 44.6 °F 76% 29.83 in - SSE 12.7 mph - N/A   Clear
1:30 AM 51.8 °F 42.8 °F 71% 29.83 in - SSE 11.5 mph - N/A   Clear
2:00 AM 50.0 °F 44.6 °F 82% 29.80 in - SE 10.4 mph - N/A   Clear
2:30 AM 51.8 °F 44.6 °F 76% 29.80 in - SSE 11.5 mph - N/A   Clear
3:00 AM 51.8 °F 44.6 °F 76% 29.80 in - SSE 10.4 mph - N/A   Clear
3:30 AM 50.0 °F 44.6 °F 82% 29.80 in - SSE 11.5 mph - N/A   Clear
4:00 AM 50.0 °F 44.6 °F 82% 29.77 in - SE 10.4 mph - N/A   Clear
4:30 AM 51.8 °F 44.6 °F 76% 29.77 in - SE 11.5 mph - N/A   Clear
5:00 AM 51.8 °F 44.6 °F 76% 29.77 in - SE 10.4 mph - N/A   Clear
5:30 AM 51.8 °F 44.6 °F 76% 29.77 in - SSE 11.5 mph - N/A   Clear
6:00 AM 53.6 °F 42.8 °F 67% 29.77 in 6.2 mi South 11.5 mph - N/A   Mostly Cloudy
6:30 AM 53.6 °F 42.8 °F 67% 29.77 in 6.2 mi South 12.7 mph - N/A   Mostly Cloudy
7:00 AM 53.6 °F 42.8 °F 67% 29.77 in 6.2 mi South 11.5 mph - N/A Rain Light Rain
7:30 AM 53.6 °F 44.6 °F 72% 29.77 in 6.2 mi South 12.7 mph - N/A Rain Light Rain
8:00 AM 53.6 °F 44.6 °F 72% 29.74 in 6.2 mi SSE 11.5 mph - N/A   Mostly Cloudy
8:30 AM 55.4 °F 44.6 °F 67% 29.74 in - South 13.8 mph - N/A   Clear
9:00 AM 57.2 °F 42.8 °F 59% 29.74 in - South 16.1 mph - N/A   Clear
9:30 AM 59.0 °F 44.6 °F 59% 29.74 in - South 13.8 mph - N/A   Clear
10:00 AM 59.0 °F 44.6 °F 59% 29.74 in - SSW 17.3 mph - N/A   Clear
10:30 AM 62.6 °F 42.8 °F 48% 29.74 in - SSW 17.3 mph 28.8 mph N/A   Clear
11:00 AM 62.6 °F 42.8 °F 48% 29.77 in - SW 23.0 mph 35.7 mph N/A   Clear
11:30 AM 62.6 °F 42.8 °F 48% 29.77 in - SW 21.9 mph - N/A   Clear
12:00 PM 64.4 °F 44.6 °F 49% 29.77 in 6.2 mi SW 26.5 mph - N/A   Mostly Cloudy
12:30 PM 66.2 °F 46.4 °F 49% 29.77 in 6.2 mi SSW 23.0 mph - N/A   Mostly Cloudy
1:00 PM 64.4 °F 46.4 °F 52% 29.77 in - SW 20.7 mph - N/A   Clear
1:30 PM 66.2 °F 48.2 °F 52% 29.77 in 6.2 mi SW 19.6 mph - N/A   Mostly Cloudy
2:00 PM 64.4 °F 46.4 °F 52% 29.77 in 6.2 mi WSW 16.1 mph - N/A Rain Light Rain
2:30 PM 62.6 °F 48.2 °F 59% 29.77 in 6.2 mi SW 15.0 mph - N/A Rain Light Rain
3:00 PM 60.8 °F 48.2 °F 63% 29.80 in 6.2 mi West 12.7 mph - N/A   Mostly Cloudy
3:30 PM 60.8 °F 50.0 °F 68% 29.80 in - WNW 12.7 mph - N/A   Clear
4:00 PM 59.0 °F 50.0 °F 72% 29.80 in - WNW 12.7 mph - N/A   Clear
4:30 PM 59.0 °F 50.0 °F 72% 29.80 in 6.2 mi NW 6.9 mph - N/A Rain Light Rain Showers
5:00 PM 59.0 °F 51.8 °F 77% 29.80 in - North 4.6 mph - N/A   Clear
5:30 PM 59.0 °F 50.0 °F 72% 29.80 in - Variable 3.5 mph - N/A   Clear
6:00 PM 59.0 °F 50.0 °F 72% 29.77 in - Variable 1.2 mph - N/A   Clear
6:30 PM 59.0 °F 51.8 °F 77% 29.80 in - Variable 1.2 mph - N/A   Clear
7:00 PM 57.2 °F 53.6 °F 88% 29.77 in 6.2 mi ESE 6.9 mph - N/A Rain Light Rain Showers
7:30 PM 55.4 °F 53.6 °F 94% 29.80 in 5.0 mi Variable 2.3 mph - N/A Rain Light Rain Showers
8:00 PM 55.4 °F 53.6 °F 94% 29.80 in 6.2 mi ENE 4.6 mph - N/A Rain Light Rain Showers
8:30 PM 53.6 °F 53.6 °F 100% 29.80 in 6.2 mi NW 5.8 mph - N/A Rain Light Rain Showers
9:00 PM 53.6 °F 53.6 °F 100% 29.83 in 6.2 mi NNW 5.8 mph - N/A Rain Light Rain Showers
9:30 PM 53.6 °F 53.6 °F 100% 29.86 in 6.2 mi NW 16.1 mph - N/A Rain Light Rain Showers
10:00 PM 51.8 °F 51.8 °F 100% 29.86 in 6.2 mi WNW 16.1 mph - N/A Rain Light Rain Showers
10:30 PM 50.0 °F 50.0 °F 100% 29.86 in 6.2 mi WNW 10.4 mph - N/A Rain Light Rain Showers
11:00 PM 48.2 °F 48.2 °F 100% 29.86 in 6.2 mi West 9.2 mph - N/A   Scattered Clouds
11:30 PM 48.2 °F 48.2 °F 100% 29.86 in 6.2 mi West 6.9 mph - N/A   Scattered Clouds